Satellite: XATCOBEO
Catalog number: 38082
Epoch time:      12110.34550888
Element set:     172
Inclination:      069.4879 deg
RA of node:       089.7797 deg
Eccentricity:    0.0757068
Arg of perigee:   321.8220 deg
Mean anomaly:     033.1679 deg
Mean motion:   14.11444132 rev/day
Decay rate:     6.8859e-04 rev/day^2
Epoch rev:             927
Checksum:              333

/EX
SB KEPS @ AMSAT  $ORB12110.W
Orbital Elements  12110.WEATHER

HR AMSAT ORBITAL ELEMENTS FOR WEATHER SATELLITES
FROM WA5QGD FORT WORTH,TX April 19, 2012
Send SUBSCRIBE KEPS/UNSUBSCRIBE KEPS to majordomo@amsat.org only
BID: ORB12110.W
TO ALL RADIO AMATEURS BT

Satellite: NOAA-10
Catalog number: 16969
Epoch time:      12109.58380208
Element set:    0890
Inclination:      098.5865 deg
RA of node:       139.6842 deg
Eccentricity:    0.0013028
Arg of perigee:   051.6862 deg
Mean anomaly:     308.5497 deg
Mean motion:   14.27542020 rev/day
Decay rate:        6.6e-07 rev/day^2
Epoch rev:           33136
Checksum:              314

Satellite: NOAA-11
Catalog number: 19531
Epoch time:      12109.81684607
Element set:    0892
Inclination:      098.7327 deg
RA of node:       196.2216 deg
Eccentricity:    0.0011775
Arg of perigee:   036.7270 deg
Mean anomaly:     323.4705 deg
Mean motion:   14.14960831 rev/day
Decay rate:      -2.07e-06 rev/day^2
Epoch rev:           21611
Checksum:              294

Satellite: NOAA-12
Catalog number: 21263
Epoch time:      12110.85923245
Element set:     378
Inclination:      098.7309 deg
RA of node:       132.7914 deg
Eccentricity:    0.0014149
Arg of perigee:   014.3572 deg
Mean anomaly:     345.8491 deg
Mean motion:   14.25489042 rev/day
Decay rate:       1.11e-06 rev/day^2
Epoch rev:            8822
Checksum:              288

Satellite: MET-3/5
Catalog number: 21655
Epoch time:      12109.89396188
Element set:    0388
Inclination:      082.5613 deg
RA of node:       194.0685 deg
Eccentricity:    0.0014757
Arg of perigee:   108.8816 deg
Mean anomaly:     251.3943 deg
Mean motion:   13.17037513 rev/day
Decay rate:        5.1e-07 rev/day^2
Epoch rev:           99409
Checksum:              331

Satellite: MET-2/21
Catalog number: 22782
Epoch time:      12110.43926111
Element set:     394
Inclination:      082.5449 deg
RA of node:       079.1216 deg
Eccentricity:    0.0021606
Arg of perigee:   320.9919 deg
Mean anomaly:     038.9677 deg
Mean motion:   13.83678945 rev/day
Decay rate:       -3.9e-07 rev/day^2
Epoch rev:           94104
Checksum:              316

Satellite: OKEAN-4
Catalog number: 23317
Epoch time:      12110.56268381
Element set:     863
Inclination:      082.5378 deg
RA of node:       086.0040 deg
Eccentricity:    0.0021143
Arg of perigee:   180.3310 deg
Mean anomaly:     179.7895 deg
Mean motion:   14.83689486 rev/day
Decay rate:       9.52e-06 rev/day^2
Epoch rev:           94611
Checksum:              309

Satellite: NOAA-14
Catalog number: 23455
Epoch time:      12110.80662292
Element set:     860
Inclination:      098.8255 deg
RA of node:       195.0382 deg
Eccentricity:    0.0010119
Arg of perigee:   123.3484 deg
Mean anomaly:     236.9140 deg
Mean motion:   14.13890173 rev/day
Decay rate:        5.9e-07 rev/day^2
Epoch rev:           89263
Checksum:              295

Satellite: NOAA-15
Catalog number: 25338
Epoch time:      12110.85115082
Element set:     230
Inclination:      098.6877 deg
RA of node:       098.3228 deg
Eccentricity:    0.0009745
Arg of perigee:   280.7551 deg
Mean anomaly:     079.3007 deg
Mean motion:   14.25054403 rev/day
Decay rate:       2.02e-06 rev/day^2
Epoch rev:           72455
Checksum:              288

Satellite: RESURS
Catalog number: 25394
Epoch time:      12109.96951797
Element set:    0098
Inclination:      098.3169 deg
RA of node:       101.3346 deg
Eccentricity:    0.0002372
Arg of perigee:   062.0674 deg
Mean anomaly:     298.0745 deg
Mean motion:   14.24282457 rev/day
Decay rate:        2.3e-07 rev/day^2
Epoch rev:           71597
Checksum:              317

Satellite: FENGYUN1
Catalog number: 25730
Epoch time:      12110.93495564
Element set:     586
Inclination:      098.8431 deg
RA of node:       070.9444 deg
Eccentricity:    0.0017690
Arg of perigee:   167.9001 deg
Mean anomaly:     192.2600 deg
Mean motion:   14.09404149 rev/day
Decay rate:      1.253e-05 rev/day^2
Epoch rev:           66640
Checksum:              292

Satellite: OKEAN-0
Catalog number: 25860
Epoch time:      12110.48085732
Element set:     604
Inclination:      097.9300 deg
RA of node:       074.3478 deg
Eccentricity:    0.0001934
Arg of perigee:   071.8426 deg
Mean anomaly:     288.2993 deg
Mean motion:   14.74153351 rev/day
Decay rate:       4.54e-06 rev/day^2
Epoch rev:           68592
Checksum:              307

Satellite: NOAA-16
Catalog number: 26536
Epoch time:      12110.82020416
Element set:     714
Inclination:      099.1006 deg
RA of node:       152.0265 deg
Eccentricity:    0.0009868
Arg of perigee:   246.7991 deg
Mean anomaly:     113.2624 deg
Mean motion:   14.12724926 rev/day
Decay rate:        9.0e-07 rev/day^2
Epoch rev:           59679
Checksum:              297

